RH
35 42 44 63 54 42 33 30 29 25 22 18 15 14 15 19 24 31 30 24 23 19 18 17 17 17 16 15 16 15 15 17 16 16 15 17 17 18 17 16 16 18 22
20 23 38 88 77 46 29 27 29 25 21 18 16 14 16 18 25 32 42 35 28 24 21 20 20 19 19 18 17 17 19 20 20 19 20 21 20 20 22 26 24 23 25
24 41 68 93 72 57 44 37 26 24 22 20 18 15 15 17 21 34 46 56 44 40 28 22 21 22 21 20 20 19 21 22 22 23 25 25 56 55 56 29 26 29 30
32 30 49 81 88 82 47 46 32 28 23 19 18 17 16 22 21 25 44 73 78 66 52 32 26 23 22 22 22 21 23 26 25 24 25 54 90 53 38 29 31 50 38
29 40 37 68 79 64 59 64 42 32 28 22 19 17 18 20 25 21 27 59 92 97 72 57 44 38 28 24 22 22 26 29 28 29 29 31 40 36 31 29 33 44 36
24 22 38 55 74 74 83 85 48 38 37 24 22 24 30 33 28 25 27 37 59 90 95 70 65 58 48 32 30 27 29 33 35 36 47 100 54 33 32 36 46 40 38
28 24 30 41 54 65 65 62 51 45 35 30 28 32 41 41 27 23 25 29 67 74 87 87 82 72 56 56 44 42 44 38 40 41 52 65 38 31 31 40 43 47 42
30 25 22 22 35 58 71 64 60 52 43 37 38 40 39 37 42 45 35 28 31 44 65 74 77 74 64 49 59 66 54 51 48 47 51 53 35 33 39 44 56 56 47
28 26 22 20 23 37 68 71 61 58 52 40 41 58 61 51 50 48 54 40 30 29 38 49 59 76 86 61 56 62 67 64 60 55 55 41 37 40 42 45 50 55 56
22 22 19 22 32 33 38 59 76 72 48 46 55 80 75 61 51 45 46 52 50 40 39 48 49 38 40 85 87 75 60 61 62 64 57 36 40 45 49 50 60 62 82
25 21 25 31 23 28 36 46 65 58 55 53 57 56 77 92 69 55 77 53 44 58 52 48 40 39 61 60 54 70 81 61 60 59 61 37 47 52 50 54 60 86 68
36 33 41 40 48 71 74 69 56 56 49 51 54 60 96 100 100 96 68 75 68 76 74 56 54 48 49 60 79 79 84 100 78 59 67 43 53 70 68 68 66 55 66
45 50 52 52 87 93 85 41 34 32 43 67 97 98 84 99 83 100 100 89 98 99 100 97 86 78 60 59 88 89 91 76 100 93 79 57 65 98 78 74 61 55 78
58 62 60 56 91 91 87 64 52 46 50 48 54 100 100 100 100 93 100 92 96 89 87 92 100 100 94 92 66 68 99 100 86 77 78 76 75 100 97 73 54 69 66
66 68 62 69 73 90 100 100 67 61 65 40 60 100 100 100 99 100 100 96 99 100 100 99 95 89 91 83 78 82 69 78 76 68 63 73 75 98 100 100 62 74 75
68 68 61 57 61 63 61 65 69 64 63 57 39 33 55 70 72 79 94 93 65 74 88 91 90 100 100 100 100 85 63 64 55 57 58 65 72 65 100 91 62 54 66
46 60 58 52 49 46 56 54 99 99 99 83 74 51 38 36 60 92 100 100 73 59 63 61 70 75 88 100 100 97 100 64 64 68 87 68 81 78 59 60 72 66 47
25 25 34 46 49 48 48 66 100 100 100 100 100 100 100 94 64 46 35 35 35 26 23 25 34 41 55 68 68 100 100 86 100 100 100 100 77 81 69 99 85 85 90
30 29 31 41 57 54 55 58 51 44 39 44 85 100 100 100 100 95 75 58 48 37 32 29 24 26 30 33 36 54 84 97 100 100 100 100 98 69 100 81 99 100 100
48 46 41 39 40 49 62 69 72 62 58 54 52 51 54 76 95 100 100 100 96 78 62 45 40 35 29 25 24 26 33 75 99 100 100 91 100 82 97 91 100 100 100
63 71 62 56 46 46 67 80 76 90 86 84 95 98 84 96 100 100 100 100 100 100 100 81 60 51 32 24 18 19 21 31 90 96 95 95 94 100 100 100 100 100 100
82 80 76 65 55 50 53 60 64 72 68 65 62 62 71 88 91 93 92 90 97 98 90 73 58 40 33 30 22 15 19 19 48 96 98 98 100 100 100 100 100 100 100
84 92 92 72 65 55 55 59 55 51 47 58 61 66 62 58 53 55 56 54 57 56 50 45 42 40 28 22 23 22 16 15 18 83 86 95 80 100 98 100 100 100 100
99 84 85 86 70 61 57 58 56 49 45 39 36 42 47 53 50 53 50 51 58 51 42 38 32 28 24 22 17 18 18 18 16 23 79 91 94 67 100 100 100 100 100
96 99 93 86 72 66 70 67 59 46 32 26 26 25 25 25 29 39 48 53 53 47 41 34 30 25 20 20 14 13 16 17 20 20 29 59 99 78 67 100 100 100 100
100 100 96 75 62 68 71 62 47 29 20 18 18 18 19 20 20 21 23 23 22 18 18 18 16 14 14 13 12 11 11 12 16 16 24 31 55 66 83 100 100 100 98
Wind_Speed
44 42 41 43 34 36 40 42 43 44 44 42 41 41 42 44 44 43 42 42 41 40 39 35 33 35 35 34 34 34 34 33 32 31 30 29 30 33 35 36 37 38 38
45 43 45 42 35 35 37 40 41 44 45 45 44 43 43 43 45 44 42 41 41 39 37 34 31 31 31 30 30 29 29 27 27 25 27 27 32 34 34 31 32 34 33
40 38 39 37 41 40 42 43 43 45 47 48 47 44 44 43 43 44 43 41 39 40 38 35 32 31 30 30 30 26 24 25 28 26 25 29 31 31 30 31 32 31 31
36 39 39 42 43 44 47 48 45 45 47 50 48 48 46 44 44 44 44 42 39 39 38 36 35 33 32 30 29 27 27 27 28 28 27 28 32 31 32 33 32 31 29
37 38 38 43 47 49 50 51 49 47 47 48 48 47 46 45 42 43 43 43 41 40 38 36 37 36 34 33 31 30 30 30 29 30 31 32 33 34 34 33 35 31 29
38 39 40 43 47 48 52 53 51 48 50 48 51 49 47 45 42 40 43 42 42 41 41 39 39 38 37 36 34 34 34 33 32 31 31 35 34 34 36 35 34 32 29
40 40 42 46 46 48 52 53 51 49 49 49 50 45 44 44 40 37 39 42 44 43 42 43 40 40 38 39 38 37 37 36 35 34 32 39 36 33 36 34 33 30 31
44 42 39 41 42 45 50 52 52 50 50 50 48 44 41 39 38 37 38 39 43 45 45 45 44 43 41 40 40 40 40 38 38 37 35 34 32 35 36 33 31 31 31
41 40 38 40 41 44 48 49 49 50 51 50 46 41 39 40 39 37 33 35 37 39 42 42 43 44 43 42 40 40 38 39 39 40 35 33 31 33 31 32 32 31 29
37 40 40 42 40 43 43 47 51 53 51 49 46 43 43 41 42 42 40 37 35 35 35 36 39 40 42 42 38 39 40 39 37 37 34 31 31 31 31 31 30 29 23
42 43 41 45 45 40 43 46 49 50 52 52 51 46 47 44 45 45 42 41 41 39 38 40 40 38 36 37 40 38 36 37 37 35 35 32 33 34 34 33 30 24 26
47 43 45 47 46 49 50 50 53 53 51 51 50 50 49 50 49 46 47 48 50 50 48 43 42 41 38 36 37 39 37 35 37 36 36 35 34 35 35 33 25 24 23
46 47 49 51 51 52 55 51 54 53 52 50 51 52 53 59 57 57 51 51 50 48 45 42 41 41 44 40 37 36 39 37 35 37 37 37 35 34 33 32 28 27 19
49 51 52 53 56 57 60 60 59 58 56 54 51 55 58 57 59 57 57 55 55 54 51 47 45 44 41 39 42 39 37 38 37 39 39 39 38 36 34 32 29 24 23
52 52 53 57 60 62 65 66 65 63 63 59 58 59 61 60 60 59 57 50 45 50 48 48 48 48 48 46 44 43 41 39 39 39 40 43 38 36 36 35 30 29 26
55 55 57 57 60 64 66 68 69 70 67 66 62 63 70 70 68 68 64 68 64 63 61 55 54 50 48 47 44 47 46 43 43 44 42 40 38 35 35 35 31 31 31
51 55 58 60 62 63 65 67 67 68 70 69 69 67 64 64 68 72 76 74 72 70 68 63 63 62 57 51 44 38 46 45 44 46 47 39 38 39 36 41 38 35 36
61 61 60 60 63 66 66 68 76 73 71 70 72 76 80 80 77 77 76 73 73 70 67 65 66 66 69 67 58 33 55 37 38 53 53 56 42 42 39 38 40 41 40
68 67 63 63 67 69 68 69 70 71 71 76 85 88 87 84 85 88 87 85 84 80 74 69 69 72 74 74 72 71 60 57 41 55 56 53 45 44 44 43 41 41 44
67 69 70 72 72 70 70 72 75 75 76 80 83 86 88 88 89 88 88 87 87 89 88 86 82 78 80 82 81 77 78 73 62 61 47 54 47 39 43 49 45 46 53
72 70 73 74 78 76 74 75 76 82 84 83 84 87 88 89 93 94 93 91 90 92 93 94 93 90 82 82 88 87 83 79 68 70 49 53 56 55 76 59 72 59 55
76 77 77 80 82 82 79 79 81 84 84 86 87 89 92 94 95 98 100 103 105 105 105 105 102 93 86 83 83 92 90 86 81 76 69 63 72 64 66 68 62 64 66
81 82 81 84 85 88 83 80 82 84 86 90 91 94 94 96 97 99 101 102 104 105 104 101 99 95 87 83 83 87 93 95 90 97 88 81 74 79 63 74 65 61 58
85 87 90 90 91 94 93 91 91 92 93 93 96 100 99 100 98 101 101 101 102 102 101 100 99 98 96 96 87 86 90 91 95 96 100 93 89 83 83 83 74 69 71
91 92 95 96 99 99 96 98 101 102 101 99 100 100 102 104 106 107 109 108 109 107 106 105 104 101 98 97 93 85 87 93 95 103 97 105 97 95 88 94 82 75 76
95 98 101 104 106 102 101 105 107 105 100 94 92 91 94 96 99 103 106 107 105 103 101 99 97 92 92 90 89 90 89 90 97 103 109 105 106 105 102 98 91 80 77
Wind_Direction
288 286 286 283 282 289 293 292 292 292 291 292 291 289 289 288 285 281 282 281 278 279 277 277 277 279 279 279 280 281 282 284 284 286 288 287 290 290 291 290 292 292 293
287 287 284 277 278 291 293 289 288 289 290 288 288 287 285 285 283 281 280 281 280 277 278 277 277 279 280 281 281 281 282 282 283 283 288 293 296 295 296 297 298 297 298
289 286 288 276 285 285 290 290 288 285 286 287 288 286 286 284 285 281 279 279 282 283 281 279 277 276 280 280 280 279 276 276 278 284 287 295 298 298 302 305 306 300 296
287 289 286 280 282 284 288 289 285 284 284 286 291 289 287 286 288 285 280 277 278 282 282 280 278 277 278 277 278 275 276 278 281 284 285 292 302 303 302 302 307 306 299
286 285 284 282 281 283 284 289 285 283 286 288 289 292 291 289 288 287 284 278 277 277 277 277 280 279 276 275 273 273 275 277 282 282 285 289 291 296 299 300 304 305 298
285 288 286 285 284 282 285 283 283 282 283 282 289 289 288 288 288 286 286 281 276 275 273 276 278 281 278 274 275 274 273 278 281 283 290 292 294 293 299 299 302 301 298
292 288 285 283 285 283 283 282 282 282 280 285 289 287 287 287 288 285 285 281 277 276 275 273 277 280 280 276 273 275 277 278 281 283 287 291 297 300 298 297 298 297 295
292 287 286 286 284 283 283 284 280 280 285 290 291 288 284 284 289 289 286 282 276 274 275 276 278 280 279 277 274 273 274 278 279 282 285 287 293 296 299 297 295 295 293
288 284 292 300 291 285 284 281 278 281 288 289 288 287 285 287 284 285 287 286 280 278 277 277 279 279 280 279 275 276 275 273 275 279 283 286 293 298 301 297 294 294 294
287 289 297 301 289 286 285 285 282 286 289 290 284 282 281 281 280 282 282 282 282 280 279 280 280 281 281 276 279 279 277 276 274 273 278 281 290 296 299 301 291 292 289
286 293 294 290 299 293 288 284 285 287 289 288 285 280 277 279 277 279 277 278 280 281 284 282 279 277 281 283 281 281 280 279 276 273 275 275 286 294 295 302 292 286 293
286 295 290 287 287 283 283 284 287 285 285 284 284 279 273 278 280 278 275 274 276 280 285 281 277 277 278 278 281 281 281 280 276 278 279 271 282 293 294 298 282 287 291
288 290 285 284 283 282 281 283 281 281 284 283 283 285 279 277 278 279 280 279 275 276 276 277 275 275 274 278 279 280 277 273 271 271 277 270 278 293 297 298 276 290 283
291 286 284 282 279 280 279 281 282 283 281 277 275 280 280 275 279 282 280 279 275 273 272 271 276 278 275 278 277 278 276 272 270 269 267 268 275 287 295 298 280 281 271
287 284 284 280 278 278 279 281 283 282 280 278 274 274 276 276 277 280 270 271 273 268 267 271 270 270 271 276 279 279 273 276 280 280 282 281 277 279 286 292 279 276 263
287 285 284 281 278 278 278 281 283 283 281 280 274 273 272 272 273 274 269 272 270 268 266 263 265 267 272 277 284 278 277 274 273 277 277 283 278 278 280 281 272 273 273
293 288 286 287 284 280 279 280 281 284 284 281 280 277 274 271 271 274 274 274 271 271 269 262 260 259 260 261 261 271 284 271 276 281 282 278 272 274 280 278 268 266 272
298 300 294 290 286 282 280 278 272 271 271 270 273 276 276 277 275 274 274 272 272 269 263 259 257 257 255 254 250 254 262 250 279 286 279 280 266 268 275 269 274 273 265
304 306 302 299 292 289 285 281 278 276 276 275 274 274 275 276 278 277 275 273 274 272 270 266 259 255 255 252 248 245 238 234 225 240 250 256 256 265 267 269 269 268 266
303 306 308 309 305 295 288 283 279 278 274 270 268 269 272 274 275 274 274 274 272 272 272 271 270 264 258 255 249 243 240 237 233 231 233 241 242 269 269 270 264 261 261
304 303 305 308 309 302 291 285 281 278 275 272 270 270 269 270 270 271 269 268 266 266 266 267 268 269 263 252 244 247 242 237 236 231 224 227 202 224 245 243 242 238 246
302 303 304 306 307 305 296 291 287 284 279 276 273 271 270 269 269 269 269 269 269 271 271 271 270 268 266 258 247 239 243 237 230 225 226 227 218 224 224 222 231 237 243
300 302 303 304 305 304 298 292 291 289 286 282 279 276 274 272 272 271 269 268 268 268 268 269 269 269 265 260 250 244 238 237 235 228 225 229 231 227 230 219 232 239 236
299 300 302 304 303 302 299 294 293 290 287 283 279 278 277 275 274 273 272 271 270 269 269 271 271 270 270 268 259 242 239 236 234 231 226 225 230 232 231 225 234 238 242
298 300 301 303 303 300 296 295 294 294 290 286 281 278 276 275 274 272 271 270 269 270 271 271 270 270 268 268 263 255 238 233 233 227 230 226 227 231 232 228 233 236 238
298 299 301 300 300 298 297 295 294 293 290 286 282 278 277 275 273 271 270 270 270 270 270 270 268 266 265 262 260 255 247 236 233 229 225 231 229 229 229 230 229 232 235